| time (UTC) | temp C | wind direction | speed KPH | gust KPH | rain 1hr cm | rain 24hr cm | rain mn cm | humidity % | barometer mb |
| 20260901144432 | 30 | 65 | 1.6 | 3.2 | 0.00 | 0.00 | 0.00 | 16 | 1016.6 |
| 20260901143928 | 30 | 89 | 0.0 | 4.8 | 0.00 | 0.00 | 0.00 | 18 | 1016.8 |
| 20260901143424 | 28 | 207 | 3.2 | 4.8 | 0.00 | 0.00 | 0.00 | 19 | 1016.7 |
| 20260901142920 | 28 | 106 | 0.0 | 3.2 | 0.00 | 0.00 | 0.00 | 20 | 1016.8 |
| 20260901142420 | 27 | 250 | 1.6 | 3.2 | 0.00 | 0.00 | 0.00 | 20 | 1016.7 |
| 20260901141915 | 27 | 121 | 3.2 | 3.2 | 0.00 | 0.00 | 0.00 | 20 | 1016.6 |
| 20260901141410 | 26 | 178 | 1.6 | 3.2 | 0.00 | 0.00 | 0.00 | 22 | 1016.6 |
| 20260901140909 | 25 | 283 | 0.0 | 1.6 | 0.00 | 0.00 | 0.00 | 22 | 1016.6 |
| 20260901140402 | 25 | 143 | 0.0 | 1.6 | 0.00 | 0.00 | 0.00 | 22 | 1016.8 |
| 20260901135857 | 24 | 139 | 0.0 | 3.2 | 0.00 | 0.00 | 0.00 | 23 | 1016.6 |
| 20260901135352 | 23 | 239 | 0.0 | 3.2 | 0.00 | 0.00 | 0.00 | 23 | 1016.3 |
| 20260901134848 | 24 | 147 | 1.6 | 3.2 | 0.00 | 0.00 | 0.00 | 23 | 1016.5 |
| 20260901134343 | 24 | 193 | 3.2 | 3.2 | 0.00 | 0.00 | 0.00 | 23 | 1016.1 |
| 20260901133842 | 23 | 226 | 0.0 | 6.4 | 0.00 | 0.00 | 0.00 | 23 | 1016.2 |
| 20260901133341 | 24 | 39 | 0.0 | 4.8 | 0.00 | 0.00 | 0.00 | 23 | 1016.1 |
| 20260901132841 | 23 | 256 | 4.8 | 6.4 | 0.00 | 0.00 | 0.00 | 24 | 1016.0 |
| 20260901132336 | 25 | 85 | 1.6 | 4.8 | 0.00 | 0.00 | 0.00 | 23 | 1016.0 |
| 20260901131836 | 24 | 259 | 0.0 | 6.4 | 0.00 | 0.00 | 0.00 | 23 | 1016.0 |
| 20260901131335 | 25 | 44 | 1.6 | 3.2 | 0.00 | 0.00 | 0.00 | 23 | 1016.0 |
| 20260901130830 | 24 | 44 | 1.6 | 3.2 | 0.00 | 0.00 | 0.00 | 23 | 1016.0 |
| 20260901130325 | 22 | 341 | 1.6 | 4.8 | 0.00 | 0.00 | 0.00 | 25 | 1016.0 |
| 20260901125822 | 23 | 130 | 0.0 | 4.8 | 0.00 | 0.00 | 0.00 | 24 | 1016.0 |
| 20260901125317 | 23 | 244 | 0.0 | 3.2 | 0.00 | 0.00 | 0.00 | 24 | 1016.0 |
| 20260901124812 | 22 | 317 | 3.2 | 3.2 | 0.00 | 0.00 | 0.00 | 25 | 1015.8 |
| 20260901124307 | 22 | 180 | 0.0 | 1.6 | 0.00 | 0.00 | 0.00 | 25 | 1015.8 |
| 20260901123806 | 22 | 256 | 3.2 | 4.8 | 0.00 | 0.00 | 0.00 | 25 | 1015.7 |
| 20260901123302 | 22 | 219 | 0.0 | 3.2 | 0.00 | 0.00 | 0.00 | 26 | 1015.7 |
| 20260901122800 | 23 | 40 | 0.0 | 1.6 | 0.00 | 0.00 | 0.00 | 25 | 1015.9 |
| 20260901122255 | 23 | 235 | 0.0 | 1.6 | 0.00 | 0.00 | 0.00 | 26 | 1015.8 |
| 20260901121754 | 22 | 338 | 1.6 | 3.2 | 0.00 | 0.00 | 0.00 | 25 | 1015.8 |
| 20260901121249 | 23 | 166 | 1.6 | 3.2 | 0.00 | 0.00 | 0.00 | 25 | 1015.4 |
| 20260901120749 | 23 | 86 | 1.6 | 3.2 | 0.00 | 0.00 | 0.00 | 25 | 1015.5 |
| 20260901120244 | 23 | 185 | 1.6 | 3.2 | 0.00 | 0.00 | 0.00 | 25 | 1015.5 |
| 20260901115739 | 23 | 297 | 1.6 | 3.2 | 0.00 | 0.00 | 0.00 | 24 | 1015.6 |
| 20260901115235 | 23 | 168 | 0.0 | 3.2 | 0.00 | 0.00 | 0.00 | 25 | 1015.5 |
| 20260901114726 | 23 | 280 | 4.8 | 9.7 | 0.00 | 0.00 | 0.00 | 24 | 1015.6 |
| 20260901114221 | 24 | 239 | 0.0 | 6.4 | 0.00 | 0.00 | 0.00 | 24 | 1015.5 |
| 20260901113719 | 23 | 225 | 6.4 | 8.0 | 0.00 | 0.00 | 0.00 | 24 | 1015.5 |
| 20260901113215 | 24 | 297 | 0.0 | 3.2 | 0.00 | 0.00 | 0.00 | 24 | 1015.5 |
| 20260901112714 | 25 | 322 | 0.0 | 1.6 | 0.00 | 0.00 | 0.00 | 23 | 1015.4 |
| 20260901112209 | 25 | 269 | 0.0 | 3.2 | 0.00 | 0.00 | 0.00 | 22 | 1015.5 |
| 20260901111708 | 27 | 296 | 3.2 | 6.4 | 0.00 | 0.00 | 0.00 | 20 | 1015.3 |
| 20260901111202 | 26 | 278 | 6.4 | 8.0 | 0.00 | 0.00 | 0.00 | 20 | 1015.3 |
| 20260901110656 | 25 | 214 | 0.0 | 1.6 | 0.00 | 0.00 | 0.00 | 23 | 1015.4 |
| 20260901110152 | 27 | 231 | 1.6 | 4.8 | 0.00 | 0.00 | 0.00 | 21 | 1015.3 |
| 20260901105649 | 28 | 76 | 0.0 | 6.4 | 0.00 | 0.00 | 0.00 | 19 | 1015.4 |
| 20260901105148 | 26 | 163 | 8.0 | 9.7 | 0.00 | 0.00 | 0.00 | 21 | 1015.5 |
| 20260901104644 | 25 | 129 | 1.6 | 3.2 | 0.00 | 0.00 | 0.00 | 23 | 1015.6 |
| 20260901104139 | 25 | 176 | 3.2 | 4.8 | 0.00 | 0.00 | 0.00 | 24 | 1015.5 |
| 20260901103638 | 25 | 109 | 0.0 | 3.2 | 0.00 | 0.00 | 0.00 | 24 | 1015.4 |
| 20260901103134 | 25 | 202 | 0.0 | 1.6 | 0.00 | 0.00 | 0.00 | 24 | 1015.3 |
| 20260901102633 | 25 | 262 | 1.6 | 3.2 | 0.00 | 0.00 | 0.00 | 24 | 1015.6 |
| 20260901102128 | 25 | 306 | 0.0 | 3.2 | 0.00 | 0.00 | 0.00 | 24 | 1015.6 |
| 20260901101625 | 26 | 258 | 0.0 | 1.6 | 0.00 | 0.00 | 0.00 | 24 | 1015.7 |
| 20260901101124 | 26 | 37 | 0.0 | 1.6 | 0.00 | 0.00 | 0.00 | 23 | 1015.6 |
| 20260901100623 | 26 | 25 | 0.0 | 3.2 | 0.00 | 0.00 | 0.00 | 23 | 1015.8 |
| 20260901100118 | 27 | 109 | 1.6 | 4.8 | 0.00 | 0.00 | 0.00 | 22 | 1015.7 |
| 20260901095616 | 27 | 84 | 0.0 | 4.8 | 0.00 | 0.00 | 0.00 | 22 | 1015.6 |
| 20260901095114 | 27 | 75 | 4.8 | 4.8 | 0.00 | 0.00 | 0.00 | 22 | 1015.6 |
| 20260901094609 | 27 | 65 | 3.2 | 6.4 | 0.00 | 0.00 | 0.00 | 23 | 1015.5 |
| 20260901094103 | 27 | 48 | 1.6 | 4.8 | 0.00 | 0.00 | 0.00 | 22 | 1015.7 |
| 20260901093557 | 26 | 107 | 0.0 | 3.2 | 0.00 | 0.00 | 0.00 | 23 | 1015.6 |
| 20260901093052 | 26 | 223 | 0.0 | 3.2 | 0.00 | 0.00 | 0.00 | 25 | 1015.4 |
| 20260901092548 | 26 | 332 | 3.2 | 3.2 | 0.00 | 0.00 | 0.00 | 25 | 1015.5 |
| 20260901092044 | 27 | 49 | 0.0 | 3.2 | 0.00 | 0.00 | 0.00 | 23 | 1015.4 |
| 20260901091539 | 27 | 140 | 0.0 | 1.6 | 0.00 | 0.00 | 0.00 | 23 | 1015.4 |
| 20260901091034 | 27 | 11 | 0.0 | 3.2 | 0.00 | 0.00 | 0.00 | 23 | 1015.5 |
| 20260901090533 | 27 | 79 | 0.0 | 6.4 | 0.00 | 0.00 | 0.00 | 22 | 1015.6 |
| 20260901090029 | 26 | 129 | 4.8 | 4.8 | 0.00 | 0.00 | 0.00 | 25 | 1015.4 |
| 20260901085524 | 26 | 44 | 1.6 | 3.2 | 0.00 | 0.00 | 0.00 | 26 | 1015.5 |
| 20260901085020 | 27 | 82 | 3.2 | 6.4 | 0.00 | 0.00 | 0.00 | 26 | 1015.4 |
| 20260901084516 | 26 | 9 | 1.6 | 6.4 | 0.00 | 0.00 | 0.00 | 25 | 1015.7 |
| 20260901084012 | 26 | 269 | 0.0 | 3.2 | 0.00 | 0.00 | 0.00 | 27 | 1015.4 |
| 20260901083507 | 26 | 326 | 0.0 | 3.2 | 0.00 | 0.00 | 0.00 | 28 | 1015.3 |
| 20260901083005 | 26 | 123 | 0.0 | 3.2 | 0.00 | 0.00 | 0.00 | 27 | 1015.4 |
| 20260901082500 | 26 | 157 | 0.0 | 3.2 | 0.00 | 0.00 | 0.00 | 27 | 1015.4 |
| 20260901081955 | 27 | 68 | 0.0 | 4.8 | 0.00 | 0.00 | 0.00 | 27 | 1015.6 |
| 20260901081449 | 27 | 308 | 0.0 | 3.2 | 0.00 | 0.00 | 0.00 | 27 | 1015.3 |
| 20260901080939 | 26 | 33 | 1.6 | 3.2 | 0.00 | 0.00 | 0.00 | 28 | 1015.2 |
| 20260901080438 | 26 | 269 | 0.0 | 3.2 | 0.00 | 0.00 | 0.00 | 27 | 1015.4 |
| 20260901075938 | 27 | 236 | 3.2 | 4.8 | 0.00 | 0.00 | 0.00 | 26 | 1015.4 |
| 20260901075434 | 26 | 131 | 1.6 | 3.2 | 0.00 | 0.00 | 0.00 | 27 | 1015.2 |
| 20260901074928 | 26 | 166 | 3.2 | 3.2 | 0.00 | 0.00 | 0.00 | 27 | 1015.2 |
| 20260901074428 | 27 | 102 | 0.0 | 3.2 | 0.00 | 0.00 | 0.00 | 27 | 1015.3 |
| 20260901073923 | 27 | 100 | 0.0 | 3.2 | 0.00 | 0.00 | 0.00 | 27 | 1015.3 |
| 20260901073420 | 26 | 114 | 0.0 | 3.2 | 0.00 | 0.00 | 0.00 | 28 | 1015.2 |
| 20260901072914 | 26 | 13 | 1.6 | 3.2 | 0.00 | 0.00 | 0.00 | 28 | 1015.4 |
| 20260901072409 | 27 | 16 | 3.2 | 3.2 | 0.00 | 0.00 | 0.00 | 28 | 1015.3 |
| 20260901071904 | 27 | 101 | 0.0 | 1.6 | 0.00 | 0.00 | 0.00 | 27 | 1015.1 |
| 20260901071403 | 26 | 190 | 3.2 | 3.2 | 0.00 | 0.00 | 0.00 | 28 | 1015.2 |
| 20260901070902 | 26 | 258 | 0.0 | 1.6 | 0.00 | 0.00 | 0.00 | 30 | 1015.1 |
| 20260901070358 | 26 | 211 | 0.0 | 3.2 | 0.00 | 0.00 | 0.00 | 30 | 1015.0 |
| 20260901065856 | 27 | 69 | 0.0 | 1.6 | 0.00 | 0.00 | 0.00 | 28 | 1015.0 |
| 20260901065352 | 27 | 159 | 1.6 | 1.6 | 0.00 | 0.00 | 0.00 | 28 | 1015.1 |
| 20260901064847 | 27 | 72 | 0.0 | 3.2 | 0.00 | 0.00 | 0.00 | 27 | 1015.0 |
| 20260901064343 | 27 | 142 | 1.6 | 3.2 | 0.00 | 0.00 | 0.00 | 27 | 1015.0 |
| 20260901063841 | 27 | 242 | 0.0 | 3.2 | 0.00 | 0.00 | 0.00 | 27 | 1015.1 |
| 20260901063337 | 27 | 255 | 1.6 | 3.2 | 0.00 | 0.00 | 0.00 | 27 | 1015.2 |
| 20260901062832 | 27 | 183 | 0.0 | 3.2 | 0.00 | 0.00 | 0.00 | 27 | 1014.9 |
| 20260901062328 | 28 | 86 | 0.0 | 3.2 | 0.00 | 0.00 | 0.00 | 25 | 1015.1 |
| 20260901061824 | 28 | 33 | 1.6 | 3.2 | 0.00 | 0.00 | 0.00 | 25 | 1015.0 |
| 20260901061319 | 29 | 94 | 0.0 | 3.2 | 0.00 | 0.00 | 0.00 | 25 | 1015.0 |
| 20260901060814 | 30 | 132 | 3.2 | 4.8 | 0.00 | 0.00 | 0.00 | 25 | 1015.0 |
| 20260901060310 | 30 | 116 | 4.8 | 4.8 | 0.00 | 0.00 | 0.00 | 25 | 1014.8 |
| 20260901055804 | 29 | 166 | 0.0 | 4.8 | 0.00 | 0.00 | 0.00 | 26 | 1014.9 |
| 20260901055301 | 29 | 202 | 0.0 | 8.0 | 0.00 | 0.00 | 0.00 | 26 | 1014.9 |
| 20260901054758 | 29 | 240 | 1.6 | 6.4 | 0.00 | 0.00 | 0.00 | 25 | 1014.8 |
| 20260901054254 | 29 | 248 | 0.0 | 6.4 | 0.00 | 0.00 | 0.00 | 26 | 1014.9 |
| 20260901053749 | 29 | 165 | 3.2 | 4.8 | 0.00 | 0.00 | 0.00 | 27 | 1014.9 |
| 20260901053244 | 28 | 236 | 3.2 | 4.8 | 0.00 | 0.00 | 0.00 | 28 | 1015.0 |
| 20260901052739 | 29 | 136 | 0.0 | 3.2 | 0.00 | 0.00 | 0.00 | 27 | 1014.9 |
| 20260901052235 | 29 | 145 | 1.6 | 3.2 | 0.00 | 0.00 | 0.00 | 28 | 1015.0 |
| 20260901051733 | 29 | 218 | 0.0 | 3.2 | 0.00 | 0.00 | 0.00 | 29 | 1015.0 |
| 20260901051228 | 29 | 251 | 0.0 | 3.2 | 0.00 | 0.00 | 0.00 | 29 | 1015.0 |
| 20260901050724 | 28 | 174 | 3.2 | 6.4 | 0.00 | 0.00 | 0.00 | 29 | 1014.8 |
| 20260901050219 | 29 | 170 | 0.0 | 4.8 | 0.00 | 0.00 | 0.00 | 29 | 1014.8 |
| 20260901045714 | 30 | 340 | 1.6 | 3.2 | 0.00 | 0.00 | 0.00 | 29 | 1014.8 |
| 20260901045209 | 30 | 147 | 3.2 | 4.8 | 0.00 | 0.00 | 0.00 | 28 | 1014.6 |
| 20260901044704 | 30 | 198 | 1.6 | 4.8 | 0.00 | 0.00 | 0.00 | 30 | 1014.6 |
| 20260901044201 | 30 | 126 | 1.6 | 4.8 | 0.00 | 0.00 | 0.00 | 30 | 1014.6 |
| 20260901043656 | 30 | 113 | 0.0 | 6.4 | 0.00 | 0.00 | 0.00 | 30 | 1014.6 |
| 20260901043151 | 30 | 141 | 1.6 | 3.2 | 0.00 | 0.00 | 0.00 | 30 | 1014.6 |
| 20260901042650 | 30 | 70 | 0.0 | 3.2 | 0.00 | 0.00 | 0.00 | 30 | 1014.4 |
| 20260901042146 | 30 | 22 | 0.0 | 1.6 | 0.00 | 0.00 | 0.00 | 29 | 1014.6 |
| 20260901041642 | 31 | 167 | 3.2 | 4.8 | 0.00 | 0.00 | 0.00 | 28 | 1014.4 |
| 20260901041136 | 31 | 157 | 3.2 | 3.2 | 0.00 | 0.00 | 0.00 | 27 | 1014.4 |
| 20260901040635 | 32 | 214 | 3.2 | 8.0 | 0.00 | 0.00 | 0.00 | 25 | 1014.4 |
| 20260901040129 | 32 | 260 | 1.6 | 8.0 | 0.00 | 0.00 | 0.00 | 25 | 1014.3 |
| 20260901035628 | 32 | 93 | 1.6 | 8.0 | 0.00 | 0.00 | 0.00 | 25 | 1014.2 |
| 20260901035126 | 32 | 260 | 6.4 | 8.0 | 0.00 | 0.00 | 0.00 | 26 | 1014.0 |
| 20260901034621 | 32 | 279 | 6.4 | 19.3 | 0.00 | 0.00 | 0.00 | 25 | 1014.0 |
| 20260901034115 | 32 | 277 | 4.8 | 19.3 | 0.00 | 0.00 | 0.00 | 26 | 1013.9 |
| 20260901033614 | 32 | 262 | 9.7 | 17.7 | 0.00 | 0.00 | 0.00 | 26 | 1014.0 |
| 20260901033109 | 32 | 261 | 6.4 | 16.1 | 0.00 | 0.00 | 0.00 | 27 | 1013.7 |
| 20260901032607 | 32 | 314 | 9.7 | 14.5 | 0.00 | 0.00 | 0.00 | 26 | 1013.7 |
| 20260901032103 | 32 | 319 | 6.4 | 14.5 | 0.00 | 0.00 | 0.00 | 27 | 1013.6 |
| 20260901031558 | 32 | 339 | 4.8 | 4.8 | 0.00 | 0.00 | 0.00 | 27 | 1013.6 |
| 20260901031054 | 32 | 238 | 6.4 | 14.5 | 0.00 | 0.00 | 0.00 | 26 | 1013.6 |
| 20260901030553 | 32 | 281 | 8.0 | 14.5 | 0.00 | 0.00 | 0.00 | 26 | 1013.3 |
| 20260901030048 | 32 | 267 | 6.4 | 11.3 | 0.00 | 0.00 | 0.00 | 26 | 1013.5 |
| 20260901025542 | 33 | 253 | 9.7 | 11.3 | 0.00 | 0.00 | 0.00 | 26 | 1013.5 |
| 20260901025037 | 32 | 272 | 8.0 | 14.5 | 0.00 | 0.00 | 0.00 | 27 | 1013.2 |
| 20260901024532 | 32 | 257 | 17.7 | 27.4 | 0.00 | 0.00 | 0.00 | 27 | 1013.2 |
| 20260901024030 | 33 | 295 | 11.3 | 19.3 | 0.00 | 0.00 | 0.00 | 27 | 1012.9 |
| 20260901023524 | 32 | 263 | 9.7 | 24.1 | 0.00 | 0.00 | 0.00 | 28 | 1013.0 |
| 20260901023020 | 32 | 275 | 9.7 | 20.9 | 0.00 | 0.00 | 0.00 | 28 | 1012.7 |
| 20260901022515 | 33 | 253 | 12.9 | 27.4 | 0.00 | 0.00 | 0.00 | 28 | 1012.9 |
| 20260901022010 | 33 | 304 | 14.5 | 29.0 | 0.00 | 0.00 | 0.00 | 28 | 1012.7 |
| 20260901021505 | 33 | 297 | 20.9 | 22.5 | 0.00 | 0.00 | 0.00 | 29 | 1012.6 |
| 20260901021000 | 33 | 304 | 11.3 | 25.7 | 0.00 | 0.00 | 0.00 | 29 | 1012.5 |
| 20260901020450 | 33 | 323 | 27.4 | 32.2 | 0.00 | 0.00 | 0.00 | 28 | 1012.4 |
| 20260901015949 | 33 | 332 | 17.7 | 29.0 | 0.00 | 0.00 | 0.00 | 29 | 1012.3 |
| 20260901015446 | 33 | 329 | 11.3 | 27.4 | 0.00 | 0.00 | 0.00 | 28 | 1012.2 |
| 20260901014945 | 33 | 297 | 35.4 | 37.0 | 0.00 | 0.00 | 0.00 | 28 | 1012.1 |
| 20260901014441 | 33 | 305 | 27.4 | 33.8 | 0.00 | 0.00 | 0.00 | 28 | 1012.1 |
| 20260901013937 | 33 | 295 | 20.9 | 32.2 | 0.00 | 0.00 | 0.00 | 28 | 1012.2 |
| 20260901013432 | 33 | 262 | 17.7 | 27.4 | 0.00 | 0.00 | 0.00 | 28 | 1012.0 |
| 20260901012927 | 34 | 295 | 16.1 | 30.6 | 0.00 | 0.00 | 0.00 | 28 | 1011.7 |
| 20260901012422 | 34 | 308 | 16.1 | 29.0 | 0.00 | 0.00 | 0.00 | 28 | 1011.7 |
| 20260901011918 | 34 | 294 | 11.3 | 30.6 | 0.00 | 0.00 | 0.00 | 27 | 1011.6 |
| 20260901011414 | 35 | 276 | 17.7 | 29.0 | 0.00 | 0.00 | 0.00 | 27 | 1011.6 |
| 20260901010912 | 35 | 336 | 14.5 | 24.1 | 0.00 | 0.00 | 0.00 | 27 | 1011.6 |
| 20260901010407 | 35 | 293 | 17.7 | 30.6 | 0.00 | 0.00 | 0.00 | 26 | 1012.0 |
| 20260901005906 | 36 | 255 | 8.0 | 29.0 | 0.00 | 0.00 | 0.00 | 25 | 1011.7 |
| 20260901005401 | 36 | 257 | 20.9 | 29.0 | 0.00 | 0.00 | 0.00 | 25 | 1011.7 |
| 20260901004856 | 36 | 263 | 16.1 | 33.8 | 0.00 | 0.00 | 0.00 | 25 | 1011.7 |
| 20260901004355 | 36 | 264 | 14.5 | 41.8 | 0.00 | 0.00 | 0.00 | 25 | 1011.8 |
| 20260901003850 | 36 | 262 | 9.7 | 27.4 | 0.00 | 0.00 | 0.00 | 24 | 1012.0 |
| 20260901003345 | 37 | 274 | 16.1 | 27.4 | 0.00 | 0.00 | 0.00 | 25 | 1012.0 |
| 20260901002844 | 37 | 287 | 11.3 | 32.2 | 0.00 | 0.00 | 0.00 | 25 | 1011.8 |
| 20260901002343 | 37 | 251 | 14.5 | 25.7 | 0.00 | 0.00 | 0.00 | 23 | 1012.1 |
| 20260901001838 | 38 | 256 | 14.5 | 27.4 | 0.00 | 0.00 | 0.00 | 23 | 1012.0 |
| 20260901001333 | 37 | 230 | 16.1 | 22.5 | 0.00 | 0.00 | 0.00 | 21 | 1012.0 |
| 20260901000829 | 38 | 255 | 17.7 | 25.7 | 0.00 | 0.00 | 0.00 | 20 | 1012.1 |
| 20260901000324 | 38 | 268 | 9.7 | 20.9 | 0.00 | 0.00 | 0.00 | 20 | 1012.1 |
| 20260831235822 | 38 | 248 | 19.3 | 20.9 | 0.00 | 0.00 | 0.00 | 20 | 1012.1 |
| 20260831235319 | 38 | 260 | 11.3 | 27.4 | 0.00 | 0.00 | 0.00 | 22 | 1012.2 |
| 20260831234813 | 38 | 256 | 20.9 | 29.0 | 0.00 | 0.00 | 0.00 | 22 | 1012.2 |
| 20260831234313 | 38 | 232 | 16.1 | 33.8 | 0.00 | 0.00 | 0.00 | 22 | 1012.1 |
| 20260831233808 | 38 | 256 | 19.3 | 32.2 | 0.00 | 0.00 | 0.00 | 23 | 1012.2 |
| 20260831233303 | 38 | 243 | 24.1 | 29.0 | 0.00 | 0.00 | 0.00 | 22 | 1012.0 |
| 20260831232753 | 38 | 227 | 20.9 | 30.6 | 0.00 | 0.00 | 0.00 | 22 | 1012.2 |
| 20260831232250 | 38 | 241 | 25.7 | 37.0 | 0.00 | 0.00 | 0.00 | 22 | 1012.2 |
| 20260831231745 | 38 | 258 | 17.7 | 38.6 | 0.00 | 0.00 | 0.00 | 23 | 1012.2 |
| 20260831231241 | 38 | 240 | 25.7 | 35.4 | 0.00 | 0.00 | 0.00 | 21 | 1012.1 |
| 20260831230736 | 38 | 248 | 29.0 | 35.4 | 0.00 | 0.00 | 0.00 | 23 | 1012.2 |
| 20260831230231 | 38 | 247 | 24.1 | 32.2 | 0.00 | 0.00 | 0.00 | 22 | 1012.3 |
| 20260831225730 | 38 | 240 | 14.5 | 33.8 | 0.00 | 0.00 | 0.00 | 22 | 1012.5 |
| 20260831225226 | 38 | 260 | 22.5 | 32.2 | 0.00 | 0.00 | 0.00 | 23 | 1012.4 |
| 20260831224720 | 38 | 241 | 16.1 | 24.1 | 0.00 | 0.00 | 0.00 | 22 | 1012.3 |
| 20260831224216 | 38 | 237 | 11.3 | 32.2 | 0.00 | 0.00 | 0.00 | 23 | 1012.5 |
| 20260831223711 | 39 | 250 | 24.1 | 30.6 | 0.00 | 0.00 | 0.00 | 22 | 1012.3 |
| 20260831223208 | 40 | 255 | 14.5 | 24.1 | 0.00 | 0.00 | 0.00 | 22 | 1012.5 |
| 20260831222703 | 38 | 254 | 20.9 | 27.4 | 0.00 | 0.00 | 0.00 | 23 | 1012.6 |
| 20260831222158 | 38 | 250 | 22.5 | 32.2 | 0.00 | 0.00 | 0.00 | 22 | 1012.6 |
| 20260831221653 | 38 | 260 | 12.9 | 27.4 | 0.00 | 0.00 | 0.00 | 23 | 1012.7 |
| 20260831221149 | 40 | 260 | 17.7 | 27.4 | 0.00 | 0.00 | 0.00 | 22 | 1012.9 |
| 20260831220638 | 39 | 220 | 17.7 | 30.6 | 0.00 | 0.00 | 0.00 | 22 | 1012.9 |
| 20260831220133 | 40 | 257 | 17.7 | 35.4 | 0.00 | 0.00 | 0.00 | 22 | 1012.9 |
| 20260831215629 | 40 | 243 | 12.9 | 17.7 | 0.00 | 0.00 | 0.00 | 22 | 1012.9 |
| 20260831215124 | 40 | 327 | 6.4 | 11.3 | 0.00 | 0.00 | 0.00 | 21 | 1013.0 |
| 20260831214622 | 40 | 325 | 6.4 | 11.3 | 0.00 | 0.00 | 0.00 | 22 | 1013.1 |
| 20260831214118 | 40 | 301 | 9.7 | 19.3 | 0.00 | 0.00 | 0.00 | 22 | 1013.2 |
| 20260831213614 | 39 | 248 | 11.3 | 19.3 | 0.00 | 0.00 | 0.00 | 22 | 1013.3 |
| 20260831213109 | 39 | 245 | 12.9 | 16.1 | 0.00 | 0.00 | 0.00 | 22 | 1013.3 |
| 20260831212605 | 40 | 281 | 9.7 | 24.1 | 0.00 | 0.00 | 0.00 | 22 | 1013.5 |
| 20260831212101 | 40 | 236 | 16.1 | 25.7 | 0.00 | 0.00 | 0.00 | 22 | 1013.6 |
| 20260831211555 | 40 | 215 | 12.9 | 24.1 | 0.00 | 0.00 | 0.00 | 23 | 1013.4 |
| 20260831211054 | 40 | 235 | 8.0 | 20.9 | 0.00 | 0.00 | 0.00 | 22 | 1013.8 |
| 20260831210549 | 39 | 231 | 6.4 | 24.1 | 0.00 | 0.00 | 0.00 | 23 | 1013.7 |
| 20260831210046 | 40 | 220 | 14.5 | 32.2 | 0.00 | 0.00 | 0.00 | 22 | 1013.8 |
| 20260831205545 | 39 | 244 | 9.7 | 24.1 | 0.00 | 0.00 | 0.00 | 22 | 1013.8 |
| 20260831205041 | 40 | 219 | 12.9 | 24.1 | 0.00 | 0.00 | 0.00 | 21 | 1013.8 |
| 20260831204536 | 40 | 199 | 6.4 | 24.1 | 0.00 | 0.00 | 0.00 | 21 | 1014.0 |
| 20260831204034 | 40 | 228 | 14.5 | 24.1 | 0.00 | 0.00 | 0.00 | 21 | 1013.9 |
| 20260831203529 | 38 | 266 | 12.9 | 25.7 | 0.00 | 0.00 | 0.00 | 22 | 1014.0 |
| 20260831203028 | 39 | 240 | 11.3 | 27.4 | 0.00 | 0.00 | 0.00 | 21 | 1013.9 |
| 20260831202522 | 38 | 237 | 17.7 | 24.1 | 0.00 | 0.00 | 0.00 | 22 | 1014.0 |
| 20260831202021 | 39 | 240 | 14.5 | 24.1 | 0.00 | 0.00 | 0.00 | 21 | 1014.1 |
| 20260831201520 | 38 | 234 | 14.5 | 25.7 | 0.00 | 0.00 | 0.00 | 21 | 1014.0 |
| 20260831201016 | 39 | 218 | 24.1 | 29.0 | 0.00 | 0.00 | 0.00 | 21 | 1014.1 |
| 20260831200512 | 39 | 224 | 11.3 | 20.9 | 0.00 | 0.00 | 0.00 | 21 | 1014.3 |
| 20260831200006 | 38 | 229 | 11.3 | 30.6 | 0.00 | 0.00 | 0.00 | 22 | 1014.3 |
| 20260831195501 | 39 | 225 | 9.7 | 24.1 | 0.00 | 0.00 | 0.00 | 22 | 1014.3 |
| 20260831195000 | 38 | 236 | 8.0 | 27.4 | 0.00 | 0.00 | 0.00 | 22 | 1014.3 |
| 20260831194456 | 38 | 236 | 9.7 | 25.7 | 0.00 | 0.00 | 0.00 | 22 | 1014.3 |
| 20260831193951 | 39 | 233 | 6.4 | 22.5 | 0.00 | 0.00 | 0.00 | 21 | 1014.4 |
| 20260831193446 | 39 | 164 | 12.9 | 27.4 | 0.00 | 0.00 | 0.00 | 21 | 1014.4 |
| 20260831192941 | 39 | 229 | 12.9 | 30.6 | 0.00 | 0.00 | 0.00 | 22 | 1014.6 |
| 20260831192436 | 38 | 203 | 9.7 | 19.3 | 0.00 | 0.00 | 0.00 | 22 | 1014.7 |
| 20260831191931 | 39 | 188 | 8.0 | 14.5 | 0.00 | 0.00 | 0.00 | 21 | 1014.5 |
| 20260831191427 | 38 | 184 | 9.7 | 20.9 | 0.00 | 0.00 | 0.00 | 21 | 1014.7 |
| 20260831190923 | 38 | 199 | 9.7 | 16.1 | 0.00 | 0.00 | 0.00 | 21 | 1014.6 |
| 20260831190418 | 38 | 183 | 12.9 | 20.9 | 0.00 | 0.00 | 0.00 | 21 | 1014.8 |
| 20260831185917 | 38 | 226 | 9.7 | 12.9 | 0.00 | 0.00 | 0.00 | 21 | 1014.7 |
| 20260831185413 | 38 | 234 | 6.4 | 19.3 | 0.00 | 0.00 | 0.00 | 21 | 1014.7 |
| 20260831184913 | 38 | 245 | 8.0 | 14.5 | 0.00 | 0.00 | 0.00 | 21 | 1014.8 |
| 20260831184408 | 38 | 228 | 4.8 | 9.7 | 0.00 | 0.00 | 0.00 | 21 | 1015.1 |
| 20260831183903 | 37 | 76 | 3.2 | 12.9 | 0.00 | 0.00 | 0.00 | 21 | 1015.1 |
| 20260831183402 | 37 | 126 | 0.0 | 12.9 | 0.00 | 0.00 | 0.00 | 21 | 1015.0 |
| 20260831182901 | 38 | 21 | 3.2 | 9.7 | 0.00 | 0.00 | 0.00 | 20 | 1015.1 |
| 20260831182357 | 38 | 328 | 8.0 | 8.0 | 0.00 | 0.00 | 0.00 | 21 | 1015.0 |
| 20260831181852 | 37 | 331 | 9.7 | 9.7 | 0.00 | 0.00 | 0.00 | 21 | 1015.2 |
| 20260831181348 | 37 | 75 | 3.2 | 6.4 | 0.00 | 0.00 | 0.00 | 22 | 1015.1 |
| 20260831180842 | 38 | 337 | 1.6 | 4.8 | 0.00 | 0.00 | 0.00 | 21 | 1015.3 |
| 20260831180337 | 37 | 110 | 1.6 | 3.2 | 0.00 | 0.00 | 0.00 | 21 | 1015.3 |
| 20260831175835 | 37 | 68 | 4.8 | 6.4 | 0.00 | 0.00 | 0.00 | 20 | 1015.3 |
| 20260831175332 | 36 | 328 | 3.2 | 6.4 | 0.00 | 0.00 | 0.00 | 21 | 1015.4 |
| 20260831174828 | 37 | 58 | 3.2 | 4.8 | 0.00 | 0.00 | 0.00 | 20 | 1015.4 |
| 20260831174323 | 37 | 349 | 0.0 | 4.8 | 0.00 | 0.00 | 0.00 | 20 | 1015.5 |
| 20260831173822 | 37 | 84 | 6.4 | 6.4 | 0.00 | 0.00 | 0.00 | 19 | 1015.6 |
| 20260831173316 | 36 | 112 | 3.2 | 6.4 | 0.00 | 0.00 | 0.00 | 19 | 1015.4 |
| 20260831172812 | 36 | 98 | 8.0 | 8.0 | 0.00 | 0.00 | 0.00 | 18 | 1015.5 |
| 20260831172307 | 37 | 58 | 1.6 | 4.8 | 0.00 | 0.00 | 0.00 | 18 | 1015.5 |
| 20260831171802 | 35 | 40 | 3.2 | 6.4 | 0.00 | 0.00 | 0.00 | 19 | 1015.4 |
| 20260831171259 | 36 | 63 | 4.8 | 6.4 | 0.00 | 0.00 | 0.00 | 19 | 1015.6 |
| 20260831170755 | 36 | 40 | 3.2 | 4.8 | 0.00 | 0.00 | 0.00 | 19 | 1015.6 |
| 20260831170251 | 36 | 87 | 6.4 | 6.4 | 0.00 | 0.00 | 0.00 | 18 | 1015.5 |
| 20260831165748 | 36 | 226 | 1.6 | 3.2 | 0.00 | 0.00 | 0.00 | 18 | 1015.4 |
| 20260831165244 | 36 | 53 | 4.8 | 4.8 | 0.00 | 0.00 | 0.00 | 17 | 1015.3 |
| 20260831164739 | 35 | 290 | 0.0 | 8.0 | 0.00 | 0.00 | 0.00 | 18 | 1015.6 |
| 20260831164235 | 35 | 280 | 4.8 | 8.0 | 0.00 | 0.00 | 0.00 | 18 | 1015.5 |
| 20260831163730 | 36 | 195 | 4.8 | 4.8 | 0.00 | 0.00 | 0.00 | 17 | 1015.4 |
| 20260831163226 | 36 | 253 | 0.0 | 1.6 | 0.00 | 0.00 | 0.00 | 16 | 1015.3 |
| 20260831162724 | 35 | 65 | 1.6 | 6.4 | 0.00 | 0.00 | 0.00 | 17 | 1015.4 |
| 20260831162224 | 35 | 35 | 0.0 | 3.2 | 0.00 | 0.00 | 0.00 | 17 | 1015.4 |
| 20260831161719 | 35 | 94 | 3.2 | 6.4 | 0.00 | 0.00 | 0.00 | 16 | 1015.3 |
| 20260831161215 | 35 | 91 | 3.2 | 6.4 | 0.00 | 0.00 | 0.00 | 17 | 1015.5 |
| 20260831160714 | 35 | 230 | 0.0 | 3.2 | 0.00 | 0.00 | 0.00 | 17 | 1015.5 |
| 20260831160204 | 35 | 125 | 3.2 | 3.2 | 0.00 | 0.00 | 0.00 | 17 | 1015.4 |
| 20260831155703 | 33 | 300 | 0.0 | 4.8 | 0.00 | 0.00 | 0.00 | 17 | 1015.4 |
| 20260831155159 | 35 | 102 | 0.0 | 4.8 | 0.00 | 0.00 | 0.00 | 16 | 1015.5 |
| 20260831154655 | 35 | 157 | 3.2 | 3.2 | 0.00 | 0.00 | 0.00 | 16 | 1015.3 |
| 20260831154150 | 34 | 281 | 0.0 | 3.2 | 0.00 | 0.00 | 0.00 | 16 | 1015.3 |
| 20260831153649 | 33 | 199 | 0.0 | 3.2 | 0.00 | 0.00 | 0.00 | 17 | 1015.4 |
| 20260831153146 | 34 | 150 | 0.0 | 3.2 | 0.00 | 0.00 | 0.00 | 16 | 1015.4 |
| 20260831152641 | 34 | 68 | 0.0 | 3.2 | 0.00 | 0.00 | 0.00 | 17 | 1015.2 |
| 20260831152137 | 33 | 297 | 0.0 | 4.8 | 0.00 | 0.00 | 0.00 | 17 | 1015.3 |
| 20260831151637 | 33 | 89 | 1.6 | 3.2 | 0.00 | 0.00 | 0.00 | 17 | 1015.2 |
| 20260831151131 | 33 | 14 | 0.0 | 3.2 | 0.00 | 0.00 | 0.00 | 17 | 1015.3 |
| 20260831150626 | 32 | 68 | 1.6 | 3.2 | 0.00 | 0.00 | 0.00 | 18 | 1015.5 |
| 20260831150121 | 32 | 221 | 0.0 | 3.2 | 0.00 | 0.00 | 0.00 | 18 | 1015.2 |
| 20260831145615 | 31 | 116 | 1.6 | 3.2 | 0.00 | 0.00 | 0.00 | 19 | 1015.3 |
| 20260831145112 | 31 | 185 | 0.0 | 3.2 | 0.00 | 0.00 | 0.00 | 19 | 1015.4 |